Location: Arrodets-la-Barthe
(43.0306°N, 0.2829°E)
Time: 01:46:08
(UTC+00:00)

Cosmos 2344 - Pass Details

Date: 05 June 2022
Orbit: 1228 x 3015 km, 63.3° (Epoch: 04 July)

Event Time Altitude Azimuth Distance (km) Brightness Sun altitude
Rises 01:43:43 0° 322° (NW) 4,371 6.7 -20.0°
Reaches altitude 10° 01:46:34 10° 330° (NNW) 3,523 6.3 -19.8°
Maximum altitude 01:54:41 41° 40° (NE) 2,321 5.5 -19.1°
Drops below altitude 10° 02:05:28 10° 107° (ESE) 4,681 6.7 -18.1°
Sets 02:09:53 0° 115° (ESE) 5,957 7.2 -17.7°
